パンスターズ彗星

C/2017 AB5 ( PanSTARRS )

English version
Home page
Updated on September 23, 2018

---------------------------------------------------------------------

・ プロフィール

発見日 2017年1月3日
発見光度 21.3等
発見者 Pan-STARRS 1 telescope (Haleakala)

・ 写真集

・ 軌道要素

Epoch 2018 Feb. 11.0 TT = JDT 2458160.5
T 2018 Feb. 18.12386 TT                                 MPCW
q   9.2162247            (2000.0)            P               Q
z  +0.0000097      Peri.   78.40857     -0.41291755     -0.83503584
 +/-0.0000030      Node    42.68962     +0.47362278     -0.53788141
e   0.9999105      Incl.   32.43083     +0.77793352     -0.11575290
From 72 observations 2017 Jan. 3-2018 Apr. 18, mean residual 0".4.

・ 光度変化

        m1 = 5.0 + 5 logΔ + 10.0 log r

---------------------------------------------------------------------

軌道要素はM.P.E.C. 2018-S50に掲載されたものです。
光度グラフはComet for Windowsで作成したものです。

---------------------------------------------------------------------

Copyright(C) Seiichi Yoshida (comet@aerith.net). All rights reserved.